sat.trackr.live / text

‹ back to catalog

COSMOS 2510

NORAD 41032 · 2015-066A

PAYLOAD ACTIVE UNKNOWN

§ Identity

Operator
Country
CIS
Launch date
2015-11-17
Launch site
PLMSC
Launch vehicle
Mass (kg)
RCS (m²)
33.21

External: N2YO · Heavens-Above · Gunter

§ Orbital elements

Epoch: 2026-05-21T13:28:38.364096Z

Period
716.51 min
Inclination
63.4971°
Eccentricity
0.7205430
Mean motion
2.00973371 rev/d
Perigee alt
1,034.2 km
Apogee alt
39,257.9 km
Semi-major
26,524.2 km
B*
0.0000e+0
RAAN
349.8445°
Arg perigee
274.6485°
Mean anomaly
13.7166°
Rev number
7,693

§ Raw data

COSMOS 25101 41032U 15066A   26141.56155514 -.00001282  00000+0  00000+0 0  99962 41032  63.4971 349.8445 7205430 274.6485  13.7166  2.00973371 76937

JSON: /api/v1/satellites/41032 · /tle

For live sub-satellite position, see the globe view (requires WebGL).

§ Visibility from observer

Set your observer location to see the next 7 days of passes ≥ 10°. The values pass through the URL so the page stays shareable.

No JS? Fill the form by hand. The geolocation button needs JavaScript.